Notices

What's New in latest Release from April 7th, 2021:

- Updated Glossary, including Speed of Maximum Gust, and Total Hourly Precipitation

- Updated national and regional climate services offices contacts and prices information

- Addition of station inventory lists for 1981-2010, 1971-2000, and 1961-1990 Normals.

If you haven't already, please take our survey and provide feedback about our website: https://eccc.sondage-survey.ca/f/LanguageSelection.aspx?s=442ca660-fcf1-47c0-95a9-59707d6fd709

Hourly Data Report for July 21, 2020

TORONTO CITY
ONTARIO
Current Station Operator: ECCC - MSC

43°40'00.000" N
79°24'00.000" W
112.50 m
6158355
71508
XTO

Download Data

Hourly Data (July 2020)
Hourly Data Report for July 21, 2020
TIME
LST
Temp Definition
°C
Dew Point Definition
°C
Rel Hum Definition
%
Precip. Amount Definition
mm

Wind Dir Definition
10's deg

Wind Spd Definition
km/h
Visibility Definition
km
Stn Press Definition
kPa
Hmdx Definition


Wind Chill Definition


Weather Definition


00:00 19.9 11.8 60 0.0       100.28     LegendNANA
01:00 19.2 11.9 63 0.0       100.27     LegendNANA
02:00 18.7 12.0 65 0.0       100.32     LegendNANA
03:00 18.2 12.0 67 0.0       100.31     LegendNANA
04:00 17.8 12.0 69 0.0       100.35     LegendNANA
05:00 17.7 12.4 71 0.0       100.39     LegendNANA
06:00 18.0 12.7 71 0.0       100.43     LegendNANA
07:00 19.3 13.7 70 0.0       100.48     LegendNANA
08:00 20.7 13.9 65 0.0       100.50     LegendNANA
09:00 22.0 14.5 63 0.0       100.50 26   LegendNANA
10:00 21.4 14.0 62 0.0       100.54 25   LegendNANA
11:00 21.5 13.6 61 0.0       100.54 25   LegendNANA
12:00 22.4 13.7 58 0.0       100.52 26   LegendNANA
13:00 24.1 14.2 54 0.0       100.49 28   LegendNANA
14:00 25.4 13.1 46 0.0       100.44 28   LegendNANA
15:00 24.4 13.0 49 0.0       100.41 27   LegendNANA
16:00 23.4 12.5 50 0.2       100.37 26   LegendNANA
17:00 24.0 12.6 49 0.3       100.35 27   LegendNANA
18:00 23.6 11.0 45 0.0       100.32 25   LegendNANA
19:00 23.1 12.2 50 0.0       100.30 25   LegendNANA
20:00 22.7 14.0 58 0.0       100.31 26   LegendNANA
21:00 22.1 15.1 64 0.0       100.33 26   LegendNANA
22:00 22.1 15.7 67 0.0       100.33 27   LegendNANA
23:00 22.2 15.6 66 0.0       100.30 27   LegendNANA

Notes on Data Quality.

Legend

  • E = Estimated
  • M = Missing
  • NA = Not Available*
  • [empty] = Indicates an unobserved value
Date modified: